Regional Weather Roundup
Issued by NWS

Home | Current Version | Previous Version | Graphics & Text | Print | Product List | Glossary On
Versions: 1 2 3 4 5 6 7 8 9 10 11 12 13 14 15 16 17 18 19 20 21 22 23 24 25 26 27 28 29 30 31 32 33 34 35 36 37 38 39 40 41 42 43 44 45 46 47 48 49 50
000
ASUS43 KLMK 190710
RWRKY
KENTUCKY REGIONAL WEATHER ROUNDUP
NATIONAL WEATHER SERVICE LOUISVILLE KY
200 AM EST THU JAN 19 2017

NOTE "FAIR" INDICATES FEW OR NO CLOUDS BELOW 12,000 FEET
WITH NO SIGNIFICANT WEATHER AND/OR OBSTRUCTIONS TO VISIBILITY.

KYZ001>023-026-027-061>063-070>075-190800-
WESTERN AND SOUTH CENTRAL KENTUCKY

CITY           SKY/WX    TMP DP  RH WIND       PRES   REMARKS
PADUCAH        CLOUDY    46  40  79 SE5       30.02F
HENDERSON      CLOUDY    41  36  81 E3        30.08R
OWENSBORO      CLOUDY    41  37  86 E6        30.08F
HOPKINSVILLE   CLOUDY    46  43  90 E6        30.05F
BOWLING GREEN  MOCLDY    43  39  86 CALM      30.09S
GLASGOW        CLOUDY    41  41 100 NE3       30.08F
$$

KYZ024-025-028>034-038-045-046-053-190800-
NORTH CENTRAL KENTUCKY

CITY           SKY/WX    TMP DP  RH WIND       PRES   REMARKS
LOUISVILLE/SDF CLOUDY    41  35  79 CALM      30.10F
LOUISVILLE/LOU MOCLDY    40  35  83 CALM      30.11F
FORT KNOX      MOCLDY    39  36  91 NE3       30.07S
$$

KYZ035>037-039>044-047>052-055>060-089>105-190800-
NORTHEAST KENTUCKY

CITY           SKY/WX    TMP DP  RH WIND       PRES   REMARKS
LEXINGTON      PTCLDY    36  33  89 CALM      30.11F
COVINGTON      CLOUDY    39  37  92 S5        30.11S
FRANKFORT      MOCLDY    35  32  88 CALM      30.10F
$$

KYZ054-064>069-076>088-106>120-190800-
SOUTHEAST KENTUCKY

CITY           SKY/WX    TMP DP  RH WIND       PRES   REMARKS
JACKSON        PTCLDY    39  36  89 S3        30.10F
LONDON         PTCLDY    38  35  89 CALM      30.10F
SOMERSET       PTCLDY    37  37 100 CALM      30.12S
MIDDLESBORO    CLOUDY    39  39 100 CALM      30.13R
MONTICELLO     CLOUDY    40  39  97 W5        30.11F
$$





USA.gov is the U.S. government's official web portal to all federal, state and local government web resources and services.